Location: 22
(39.7117°N, 89.5929°W)
Time: 00:06:29
(UTC-05:00)

Hubble Space Telescope - Visible Passes

Search period start: 19 April 2026 00:00
Search period end: 29 April 2026 00:00
Orbit: 474 x 477 km, 28.5° (Epoch: 18 April)

Date Brightness Start Highest point End Pass type
(mag) Time Alt. Az. Time Alt. Az. Time Alt. Az.
24 Apr 2.7 20:49:03 10° S 20:50:23 12° SSE 20:50:45 11° SSE visible
25 Apr 2.7 20:17:50 10° S 20:19:09 12° SSE 20:20:28 10° SSE visible
26 Apr 2.7 21:24:47 10° SW 21:26:10 14° SSW 21:26:10 14° SSW visible
27 Apr 2.5 20:53:31 10° SW 20:55:41 15° S 20:56:43 13° SSE visible
28 Apr 2.6 20:22:15 10° SW 20:24:25 15° S 20:26:35 10° SE visible
